Regional Weather Roundup
Issued by NWS

Home | Current Version | Previous Version | Text Only | Print | Product List | Glossary Off
Versions: 1 2 3 4 5 6 7 8 9 10 11 12 13 14 15 16 17 18 19 20 21 22 23 24 25 26 27 28 29 30 31 32 33 34 35 36 37 38 39 40 41 42 43 44 45 46 47 48 49 50

000
ASUS43 KLSX 211857
RWRMO

WEATHER SUMMARY FOR MISSOURI
NATIONAL WEATHER SERVICE SPRINGFIELD MO
200 PM CDT SAT APR 21 2018

NOTE: "FAIR" INDICATES FEW OR NO CLOUDS BELOW 12,000 FEET WITH NO
       SIGNIFICANT WEATHER AND/OR OBSTRUCTIONS TO VISIBILITY.
       CURRENT SKY AND/OR WEATHER CONDITIONS ARE NOT AVAILABLE FOR
       CHILLICOTHE AND FARMINGTON.

MOZ001>031-035>038-043-044-053-054-212000-
...NORTHERN AND WESTERN MISSOURI...

CITY           SKY/WX    TMP DP  RH WIND       PRES   REMARKS
KANSAS CTY INT CLOUDY    58  31  35 NE14      30.18F
LEE`S SUMMIT   PTSUNNY   60  33  36 E9        30.17F
ST JOSEPH      CLOUDY    56  31  38 NE12      30.22F
CHILLICOTHE      N/A     61  31  32 E7        30.24F

$$
MOZ066>068-077>081-088>096-101>105-212000-
...SOUTHWEST MISSOURI...

CITY           SKY/WX    TMP DP  RH WIND       PRES   REMARKS
SPRINGFIELD    MOSUNNY   66  37  34 SE17G28   30.11F
JOPLIN         PTSUNNY   64  43  46 E14G21    30.10F
BRANSON        PTSUNNY   64  37  36 SE15G23   30.11F

$$
MOZ032>034-039>042-045>050-055>058-069>072-212000-
...CENTRAL MISSOURI...

CITY           SKY/WX    TMP DP  RH WIND       PRES   REMARKS
COLUMBIA       NOT AVBL
JEFFERSON CITY CLOUDY    65  28  24 E15       30.18F
ROLLA          CLOUDY    64  31  28 E10       30.17F
SEDALIA        CLOUDY    65  34  31 E10G17    30.19F
WARRENSBURG    CLOUDY    66  32  28 NE7       30.17F

$$
MOZ051-052-059>065-212000-
...EAST CENTRAL MISSOURI...

CITY           SKY/WX    TMP DP  RH WIND       PRES   REMARKS
ST LOUIS INTL  CLOUDY    65  31  28 E17G24    30.24F

$$
MOZ072>076-082>087-097>100-106>115-212000-
...SOUTH CENTRAL AND SOUTHEAST MISSOURI...

CITY           SKY/WX    TMP DP  RH WIND       PRES   REMARKS
CAPE GIRARDEAU FAIR      70  41  34 SE10      30.20F
POPLAR BLUFF   FAIR      71  38  29 E10       30.16F
WEST PLAINS    CLOUDY    68  33  27 SE13G21   30.14F

$$




USA.gov is the U.S. government's official web portal to all federal, state and local government web resources and services.